KLM1635 LICJ-HLLB

Flight info

Callsign KLM1635
Flight time 1h 27m
Altitude 37000
Route PAL DCT BEKIV DCT LORED DCT ELIMO P573 RIGEM
Aircraft A20N/M-SDE2E3FGHIRWXY/LB1

Departure

Time 2026-05-04 18:47
Airport Falcone–Borsellino Airport (LICJ)

Arrival

Time 2026-05-04 20:14
Airport Benina International Airport (HLLB)
Time Latitude Longitude Altitude Speed Heading
2026-05-04 18:40 38.18596 13.11025 65 ft 0 kts 67°
2026-05-04 18:42 38.18597 13.11029 65 ft 0 kts 67°
2026-05-04 18:42 38.18607 13.11058 65 ft 6 kts 67°
2026-05-04 18:42 38.18612 13.11106 61 ft 5 kts 112°
2026-05-04 18:43 38.18592 13.11115 65 ft 4 kts 165°
2026-05-04 18:43 38.18565 13.11134 60 ft 4 kts 132°
2026-05-04 18:43 38.18550 13.11183 61 ft 11 kts 118°
2026-05-04 18:43 38.18511 13.11246 63 ft 8 kts 90°
2026-05-04 18:44 38.18533 13.11309 62 ft 7 kts 62°
2026-05-04 18:44 38.18540 13.11327 64 ft 7 kts 64°
2026-05-04 18:44 38.18571 13.11419 60 ft 7 kts 67°
2026-05-04 18:44 38.18590 13.11473 63 ft 6 kts 67°
2026-05-04 18:45 38.18606 13.11525 64 ft 7 kts 70°
2026-05-04 18:45 38.18616 13.11598 63 ft 9 kts 94°
2026-05-04 18:45 38.18604 13.11730 65 ft 18 kts 97°
2026-05-04 18:45 38.18576 13.11873 64 ft 15 kts 134°
2026-05-04 18:46 38.18502 13.11839 64 ft 14 kts 243°
2026-05-04 18:46 38.18406 13.11555 69 ft 68 kts 247°
2026-05-04 18:46 38.18130 13.10737 63 ft 130 kts 247°
2026-05-04 18:46 38.17713 13.09493 166 ft 168 kts 246°
2026-05-04 18:47 38.17269 13.08091 724 ft 174 kts 248°
2026-05-04 18:47 38.16827 13.06627 1244 ft 181 kts 247°
2026-05-04 18:47 38.16361 13.05118 1764 ft 185 kts 247°
2026-05-04 18:47 38.15909 13.03577 2286 ft 187 kts 250°
2026-05-04 18:48 38.15625 13.01918 2777 ft 203 kts 268°
2026-05-04 18:48 38.16088 13.00170 3290 ft 218 kts 303°
2026-05-04 18:48 38.16783 12.99236 3808 ft 221 kts 322°
2026-05-04 18:48 38.18441 12.97745 4934 ft 220 kts 313°
2026-05-04 18:49 38.19374 12.96218 5731 ft 219 kts 302°
2026-05-04 18:49 38.20214 12.94608 6571 ft 218 kts 302°
2026-05-04 18:49 38.21047 12.92994 7356 ft 218 kts 302°
2026-05-04 18:49 38.21879 12.91375 8126 ft 219 kts 302°
2026-05-04 18:50 38.22714 12.89749 8923 ft 220 kts 302°
2026-05-04 18:50 38.23268 12.88665 9447 ft 221 kts 303°
2026-05-04 18:50 38.24107 12.87022 10219 ft 222 kts 303°
2026-05-04 18:50 38.24951 12.85369 10939 ft 223 kts 302°
2026-05-04 18:51 38.25801 12.83707 11664 ft 225 kts 302°
2026-05-04 18:51 38.26659 12.82035 12393 ft 226 kts 302°
2026-05-04 18:51 38.27423 12.80283 13108 ft 228 kts 285°
2026-05-04 18:51 38.27438 12.78282 13804 ft 233 kts 254°
2026-05-04 18:52 38.26510 12.76507 14149 ft 257 kts 221°
2026-05-04 18:52 38.25016 12.75173 14712 ft 266 kts 217°
2026-05-04 18:52 38.23427 12.73933 15355 ft 273 kts 207°
2026-05-04 18:52 38.21528 12.73535 15978 ft 287 kts 176°
2026-05-04 18:53 38.19607 12.74409 16360 ft 310 kts 147°
2026-05-04 18:53 38.18032 12.76432 16509 ft 336 kts 129°
2026-05-04 18:53 38.16631 12.78888 16639 ft 358 kts 124°
2026-05-04 18:53 38.15247 12.81630 16762 ft 379 kts 122°
2026-05-04 18:54 38.13831 12.84554 16904 ft 398 kts 122°
2026-05-04 18:54 38.12464 12.87657 17314 ft 407 kts 114°
2026-05-04 18:54 38.11472 12.91044 17861 ft 411 kts 110°
2026-05-04 18:54 38.10478 12.94459 18464 ft 415 kts 110°
2026-05-04 18:55 38.09439 12.97893 18965 ft 418 kts 111°
2026-05-04 18:55 38.07302 13.04835 19940 ft 426 kts 111°
2026-05-04 18:55 38.06218 13.08361 20433 ft 430 kts 111°
2026-05-04 18:56 38.05128 13.11920 20900 ft 434 kts 111°
2026-05-04 18:56 38.04034 13.15503 21404 ft 438 kts 111°
2026-05-04 18:56 38.02932 13.19120 21860 ft 441 kts 111°
2026-05-04 18:56 38.01805 13.22760 22312 ft 445 kts 111°
2026-05-04 18:57 38.00650 13.26423 22756 ft 449 kts 112°
2026-05-04 18:57 37.99490 13.30062 23184 ft 453 kts 112°
2026-05-04 18:57 37.98300 13.33778 23635 ft 457 kts 112°
2026-05-04 18:57 37.97104 13.37523 24014 ft 460 kts 112°
2026-05-04 18:58 37.95901 13.41292 24378 ft 463 kts 112°
2026-05-04 18:58 37.94693 13.45084 24759 ft 465 kts 112°
2026-05-04 18:58 37.93478 13.48896 25102 ft 468 kts 112°
2026-05-04 18:58 37.92255 13.52726 25483 ft 470 kts 111°
2026-05-04 18:59 37.91025 13.56574 25857 ft 472 kts 111°
2026-05-04 18:59 37.89790 13.60439 26223 ft 475 kts 111°
2026-05-04 18:59 37.88495 13.64285 26590 ft 477 kts 116°
2026-05-04 18:59 37.86810 13.67914 26933 ft 480 kts 125°
2026-05-04 19:00 37.84722 13.71227 27274 ft 482 kts 132°
2026-05-04 19:00 37.82517 13.74419 27628 ft 484 kts 132°
2026-05-04 19:00 37.80297 13.77635 27947 ft 486 kts 131°
2026-05-04 19:00 37.78064 13.80875 28274 ft 489 kts 131°
2026-05-04 19:01 37.75853 13.84088 28586 ft 491 kts 131°
2026-05-04 19:01 37.73605 13.87353 28915 ft 493 kts 131°
2026-05-04 19:01 37.71346 13.90625 29217 ft 495 kts 131°
2026-05-04 19:01 37.69075 13.93909 29526 ft 497 kts 131°
2026-05-04 19:02 37.66793 13.97204 29812 ft 499 kts 131°
2026-05-04 19:02 37.64504 14.00507 30178 ft 500 kts 131°
2026-05-04 19:02 37.62218 14.03805 30559 ft 499 kts 131°
2026-05-04 19:02 37.59935 14.07096 30900 ft 498 kts 131°
2026-05-04 19:03 37.57651 14.10382 31223 ft 498 kts 131°
2026-05-04 19:03 37.55367 14.13667 31546 ft 498 kts 132°
2026-05-04 19:03 37.53079 14.16959 31875 ft 498 kts 132°
2026-05-04 19:03 37.50796 14.20241 32197 ft 498 kts 132°
2026-05-04 19:04 37.48510 14.23517 32524 ft 498 kts 132°
2026-05-04 19:04 37.46214 14.26802 32829 ft 499 kts 133°
2026-05-04 19:04 37.43925 14.30074 33149 ft 499 kts 133°
2026-05-04 19:04 37.41631 14.33355 33467 ft 499 kts 133°
2026-05-04 19:05 37.39334 14.36633 33783 ft 499 kts 133°
2026-05-04 19:05 37.37035 14.39908 34110 ft 499 kts 133°
2026-05-04 19:05 37.34735 14.43181 34396 ft 499 kts 133°
2026-05-04 19:05 37.32436 14.46454 34682 ft 499 kts 133°
2026-05-04 19:06 37.30138 14.49725 34965 ft 499 kts 133°
2026-05-04 19:06 37.27838 14.52993 35233 ft 499 kts 133°
2026-05-04 19:06 37.25537 14.56258 35509 ft 499 kts 133°
2026-05-04 19:06 37.23233 14.59519 35756 ft 499 kts 133°
2026-05-04 19:07 37.20927 14.62777 36016 ft 499 kts 134°
2026-05-04 19:07 37.18622 14.66032 36273 ft 499 kts 134°
2026-05-04 19:07 37.16318 14.69287 36515 ft 499 kts 134°
2026-05-04 19:07 37.14015 14.72542 36758 ft 499 kts 134°
2026-05-04 19:08 37.11713 14.75796 36981 ft 499 kts 134°
2026-05-04 19:08 37.09433 14.79014 37151 ft 499 kts 134°
2026-05-04 19:08 37.04806 14.85526 37181 ft 501 kts 134°
2026-05-04 19:09 37.00176 14.92029 37159 ft 500 kts 134°
2026-05-04 19:09 36.95531 14.98537 37167 ft 501 kts 134°
2026-05-04 19:10 36.90876 15.05037 37163 ft 502 kts 134°
2026-05-04 19:10 36.86223 15.11532 37159 ft 501 kts 134°
2026-05-04 19:11 36.81570 15.18020 37162 ft 501 kts 134°
2026-05-04 19:11 36.76913 15.24503 37163 ft 502 kts 134°
2026-05-04 19:12 36.69924 15.34182 37154 ft 502 kts 134°
2026-05-04 19:13 36.65247 15.40656 37161 ft 503 kts 134°
2026-05-04 19:13 36.60560 15.47135 37165 ft 503 kts 134°
2026-05-04 19:14 36.55895 15.53558 37179 ft 503 kts 134°
2026-05-04 19:14 36.50857 15.59521 37179 ft 498 kts 148°
2026-05-04 19:15 36.44801 15.63459 37179 ft 487 kts 166°
2026-05-04 19:15 36.38333 15.65819 37171 ft 485 kts 169°
2026-05-04 19:16 36.31828 15.68140 37172 ft 486 kts 169°
2026-05-04 19:16 36.25317 15.70458 37181 ft 487 kts 169°
2026-05-04 19:17 36.18842 15.72756 37186 ft 487 kts 169°
2026-05-04 19:17 36.12333 15.75062 37180 ft 486 kts 169°
2026-05-04 19:18 36.05827 15.77362 37187 ft 486 kts 169°
2026-05-04 19:18 35.99320 15.79658 37191 ft 486 kts 169°
2026-05-04 19:19 35.92799 15.81956 37176 ft 486 kts 169°
2026-05-04 19:19 35.86287 15.84237 37192 ft 486 kts 169°
2026-05-04 19:20 35.79822 15.86503 37196 ft 486 kts 169°
2026-05-04 19:20 35.73309 15.88785 37199 ft 485 kts 169°
2026-05-04 19:21 35.66843 15.91056 37188 ft 485 kts 169°
2026-05-04 19:21 35.60342 15.93336 37198 ft 485 kts 169°
2026-05-04 19:22 35.53834 15.95605 37202 ft 485 kts 169°
2026-05-04 19:22 35.47340 15.97855 37206 ft 485 kts 169°
2026-05-04 19:23 35.40848 16.00108 37198 ft 485 kts 169°
2026-05-04 19:23 35.34378 16.02351 37194 ft 486 kts 169°
2026-05-04 19:24 35.27870 16.04610 37192 ft 486 kts 169°
2026-05-04 19:24 35.21346 16.06866 37200 ft 487 kts 169°
2026-05-04 19:25 35.14809 16.09125 37194 ft 487 kts 169°
2026-05-04 19:25 35.08280 16.11378 37215 ft 487 kts 169°
2026-05-04 19:26 35.01793 16.13604 37212 ft 487 kts 169°
2026-05-04 19:26 34.95273 16.15841 37212 ft 487 kts 169°
2026-05-04 19:27 34.88784 16.18067 37208 ft 486 kts 169°
2026-05-04 19:27 34.82270 16.20300 37210 ft 486 kts 169°
2026-05-04 19:28 34.75751 16.22535 37216 ft 486 kts 169°
2026-05-04 19:28 34.69233 16.24761 37203 ft 486 kts 169°
2026-05-04 19:29 34.62718 16.26982 37196 ft 485 kts 169°
2026-05-04 19:29 34.56258 16.29169 37205 ft 485 kts 169°
2026-05-04 19:30 34.49756 16.31378 37201 ft 484 kts 169°
2026-05-04 19:30 34.43259 16.33582 37207 ft 484 kts 169°
2026-05-04 19:31 34.36900 16.36361 37195 ft 493 kts 155°
2026-05-04 19:31 34.34022 16.38644 37196 ft 498 kts 144°
2026-05-04 19:31 34.31480 16.41503 37199 ft 501 kts 133°
2026-05-04 19:32 34.27496 16.48436 37181 ft 503 kts 122°
2026-05-04 19:32 34.23835 16.55601 37190 ft 504 kts 122°
2026-05-04 19:33 34.20143 16.62827 37197 ft 504 kts 122°
2026-05-04 19:33 34.16451 16.70028 37208 ft 504 kts 122°
2026-05-04 19:34 34.12746 16.77242 37191 ft 505 kts 122°
2026-05-04 19:34 34.09061 16.84406 37189 ft 506 kts 122°
2026-05-04 19:35 34.05337 16.91629 37192 ft 507 kts 122°
2026-05-04 19:35 34.01605 16.98855 37193 ft 507 kts 122°
2026-05-04 19:36 33.97877 17.06067 37222 ft 507 kts 122°
2026-05-04 19:36 33.94162 17.13243 37212 ft 508 kts 122°
2026-05-04 19:37 33.90405 17.20467 37205 ft 509 kts 122°
2026-05-04 19:37 33.86642 17.27706 37203 ft 509 kts 122°
2026-05-04 19:38 33.82884 17.34927 37209 ft 509 kts 122°
2026-05-04 19:38 33.79135 17.42099 37225 ft 509 kts 122°
2026-05-04 19:39 33.75351 17.49317 37217 ft 510 kts 122°
2026-05-04 19:39 33.71565 17.56539 37188 ft 510 kts 122°
2026-05-04 19:40 33.67803 17.63714 37207 ft 510 kts 122°
2026-05-04 19:40 33.64003 17.70926 37220 ft 511 kts 122°
2026-05-04 19:41 33.60833 17.76919 37242 ft 511 kts 122°
2026-05-04 19:41 33.57022 17.84134 37229 ft 512 kts 122°
2026-05-04 19:42 33.52587 17.92505 37228 ft 512 kts 122°
2026-05-04 19:42 33.49378 17.98554 37237 ft 513 kts 122°
2026-05-04 19:43 33.45576 18.05711 37225 ft 513 kts 122°
2026-05-04 19:43 33.41742 18.12901 37228 ft 512 kts 122°
2026-05-04 19:44 33.37905 18.20092 37234 ft 512 kts 122°
2026-05-04 19:44 33.34066 18.27279 37208 ft 512 kts 122°
2026-05-04 19:45 33.30240 18.34408 37210 ft 511 kts 122°
2026-05-04 19:45 33.26399 18.41552 37217 ft 511 kts 123°
2026-05-04 19:46 33.22549 18.48718 37234 ft 511 kts 122°
2026-05-04 19:46 33.18697 18.55876 37227 ft 512 kts 122°
2026-05-04 19:47 33.14858 18.62983 37215 ft 512 kts 123°
2026-05-04 19:47 33.10992 18.70129 37214 ft 513 kts 123°
2026-05-04 19:48 33.07116 18.77273 37217 ft 513 kts 123°
2026-05-04 19:48 33.03226 18.84428 36674 ft 517 kts 123°
2026-05-04 19:48 33.01257 18.88049 35645 ft 524 kts 123°
2026-05-04 19:49 32.99271 18.91702 34795 ft 526 kts 123°
2026-05-04 19:49 32.97272 18.95379 33988 ft 527 kts 123°
2026-05-04 19:49 32.95307 18.98984 33014 ft 523 kts 123°
2026-05-04 19:49 32.93318 19.02621 31511 ft 523 kts 123°
2026-05-04 19:50 32.91325 19.06255 29870 ft 525 kts 123°
2026-05-04 19:50 32.89327 19.09897 28124 ft 525 kts 122°
2026-05-04 19:50 32.87346 19.13511 26736 ft 518 kts 122°
2026-05-04 19:50 32.85411 19.17040 26020 ft 503 kts 122°
2026-05-04 19:51 32.83502 19.20519 25205 ft 502 kts 122°
2026-05-04 19:51 32.81597 19.23985 24401 ft 500 kts 122°
2026-05-04 19:51 32.79577 19.27357 23624 ft 497 kts 128°
2026-05-04 19:51 32.77447 19.30500 22910 ft 492 kts 128°
2026-05-04 19:52 32.75304 19.33664 22247 ft 485 kts 128°
2026-05-04 19:52 32.73202 19.36769 21607 ft 479 kts 128°
2026-05-04 19:52 32.71127 19.39831 21008 ft 473 kts 128°
2026-05-04 19:52 32.69077 19.42855 20419 ft 467 kts 128°
2026-05-04 19:53 32.67053 19.45840 19861 ft 461 kts 129°
2026-05-04 19:53 32.65054 19.48784 19310 ft 455 kts 129°
2026-05-04 19:53 32.63074 19.51695 18777 ft 449 kts 129°
2026-05-04 19:53 32.61147 19.54526 18223 ft 444 kts 129°
2026-05-04 19:54 32.59218 19.57357 17685 ft 438 kts 129°
2026-05-04 19:54 32.57314 19.60147 17152 ft 432 kts 129°
2026-05-04 19:54 32.55429 19.62907 16616 ft 428 kts 129°
2026-05-04 19:54 32.53561 19.65639 16078 ft 424 kts 129°
2026-05-04 19:55 32.51711 19.68342 15521 ft 421 kts 129°
2026-05-04 19:55 32.49879 19.71023 14975 ft 418 kts 129°
2026-05-04 19:55 32.48052 19.73698 14387 ft 417 kts 128°
2026-05-04 19:55 32.46252 19.76331 13766 ft 415 kts 128°
2026-05-04 19:56 32.44439 19.78979 13175 ft 412 kts 129°
2026-05-04 19:56 32.42630 19.81615 12559 ft 409 kts 129°
2026-05-04 19:56 32.40845 19.84217 11950 ft 405 kts 129°
2026-05-04 19:56 32.39072 19.86796 11319 ft 402 kts 129°
2026-05-04 19:57 32.37319 19.89344 10916 ft 393 kts 129°
2026-05-04 19:57 32.35629 19.91795 10800 ft 376 kts 129°
2026-05-04 19:57 32.34012 19.94141 10671 ft 360 kts 129°
2026-05-04 19:57 32.32459 19.96396 10550 ft 347 kts 129°
2026-05-04 19:58 32.30982 19.98539 10447 ft 335 kts 129°
2026-05-04 19:58 32.29537 20.00637 10310 ft 323 kts 129°
2026-05-04 19:58 32.28134 20.02676 10091 ft 317 kts 129°
2026-05-04 19:58 32.26744 20.04695 9696 ft 315 kts 129°
2026-05-04 19:59 32.25364 20.06697 9314 ft 313 kts 129°
2026-05-04 19:59 32.23999 20.08673 8803 ft 308 kts 129°
2026-05-04 19:59 32.22654 20.10620 8147 ft 304 kts 129°
2026-05-04 19:59 32.21323 20.12548 7409 ft 303 kts 129°
2026-05-04 20:00 32.19987 20.14475 6650 ft 303 kts 129°
2026-05-04 20:00 32.18682 20.16359 6261 ft 288 kts 129°
2026-05-04 20:00 32.17472 20.18105 6053 ft 268 kts 129°
2026-05-04 20:00 32.16337 20.19742 5907 ft 247 kts 129°
2026-05-04 20:01 32.15279 20.21270 5871 ft 237 kts 128°
2026-05-04 20:01 32.14240 20.22767 5868 ft 235 kts 128°
2026-05-04 20:01 32.13205 20.24258 5872 ft 235 kts 129°
2026-05-04 20:01 32.12168 20.25751 5868 ft 235 kts 128°
2026-05-04 20:02 32.11134 20.27243 5868 ft 235 kts 128°
2026-05-04 20:02 32.10102 20.28737 5824 ft 235 kts 128°
2026-05-04 20:02 32.09070 20.30233 5773 ft 235 kts 128°
2026-05-04 20:02 32.08056 20.31707 5711 ft 234 kts 128°
2026-05-04 20:03 32.07056 20.33219 5674 ft 233 kts 120°
2026-05-04 20:03 32.06706 20.35020 5665 ft 228 kts 78°
2026-05-04 20:03 32.07410 20.36612 5518 ft 220 kts 37°
2026-05-04 20:03 32.08785 20.37269 5367 ft 215 kts 359°
2026-05-04 20:04 32.10187 20.36788 5218 ft 213 kts 322°
2026-05-04 20:04 32.11063 20.35397 5074 ft 216 kts 294°
2026-05-04 20:04 32.11683 20.33779 4917 ft 217 kts 297°
2026-05-04 20:04 32.12353 20.32183 4754 ft 217 kts 298°
2026-05-04 20:05 32.13035 20.30591 4573 ft 217 kts 298°
2026-05-04 20:05 32.13706 20.29026 4390 ft 217 kts 298°
2026-05-04 20:05 32.14387 20.27434 4216 ft 216 kts 298°
2026-05-04 20:05 32.15055 20.25860 4018 ft 213 kts 298°
2026-05-04 20:06 32.15710 20.24309 3817 ft 209 kts 298°
2026-05-04 20:06 32.16387 20.22807 3604 ft 205 kts 309°
2026-05-04 20:06 32.17460 20.21776 3415 ft 198 kts 333°
2026-05-04 20:06 32.18544 20.20794 3212 ft 199 kts 306°
2026-05-04 20:07 32.19138 20.19342 3015 ft 198 kts 293°
2026-05-04 20:07 32.19581 20.17839 2971 ft 189 kts 291°
2026-05-04 20:07 32.20011 20.16407 2969 ft 181 kts 293°
2026-05-04 20:07 32.20462 20.15026 2946 ft 179 kts 295°
2026-05-04 20:08 32.20971 20.13690 2909 ft 177 kts 306°
2026-05-04 20:08 32.21852 20.12746 2785 ft 169 kts 338°
2026-05-04 20:08 32.22966 20.12516 2658 ft 164 kts
2026-05-04 20:08 32.24021 20.12969 2527 ft 161 kts 36°
2026-05-04 20:09 32.24759 20.13940 2421 ft 159 kts 60°
2026-05-04 20:09 32.25036 20.15174 2290 ft 154 kts 86°
2026-05-04 20:09 32.24830 20.16398 2155 ft 154 kts 111°
2026-05-04 20:09 32.24197 20.17392 2037 ft 150 kts 136°
2026-05-04 20:10 32.23319 20.18017 1913 ft 148 kts 148°
2026-05-04 20:10 32.22415 20.18583 1796 ft 145 kts 149°
2026-05-04 20:10 32.21527 20.19141 1761 ft 144 kts 149°
2026-05-04 20:10 32.20627 20.19660 1798 ft 144 kts 152°
2026-05-04 20:11 32.19708 20.20144 1762 ft 144 kts 152°
2026-05-04 20:11 32.18812 20.20658 1725 ft 142 kts 149°
2026-05-04 20:11 32.17943 20.21196 1729 ft 143 kts 148°
2026-05-04 20:11 32.17067 20.21769 1689 ft 143 kts 146°
2026-05-04 20:12 32.16212 20.22342 1579 ft 140 kts 146°
2026-05-04 20:12 32.15370 20.22919 1472 ft 139 kts 146°
2026-05-04 20:12 32.14540 20.23493 1332 ft 137 kts 147°
2026-05-04 20:12 32.13716 20.24037 1156 ft 137 kts 148°
2026-05-04 20:13 32.12892 20.24590 942 ft 135 kts 145°
2026-05-04 20:13 32.12087 20.25152 727 ft 134 kts 147°
2026-05-04 20:13 32.11277 20.25694 515 ft 134 kts 148°
2026-05-04 20:13 32.10484 20.26224 400 ft 123 kts 149°
2026-05-04 20:14 32.09918 20.26612 407 ft 53 kts 150°
2026-05-04 20:14 32.09751 20.26722 413 ft 22 kts 151°
2026-05-04 20:14 32.09613 20.26812 415 ft 25 kts 151°
2026-05-04 20:14 32.09444 20.26926 414 ft 29 kts 149°
2026-05-04 20:15 32.09256 20.27051 409 ft 33 kts 152°
2026-05-04 20:15 32.09056 20.27186 417 ft 34 kts 149°
2026-05-04 20:15 32.08875 20.27236 419 ft 22 kts 204°
2026-05-04 20:15 32.08788 20.27091 418 ft 21 kts 244°
2026-05-04 20:16 32.08787 20.26978 419 ft 5 kts 271°
2026-05-04 20:16 32.08787 20.26977 419 ft 0 kts 271°
2026-05-04 20:17 32.08787 20.26976 419 ft 1 kts 276°
2026-05-04 20:17 32.08802 20.27013 411 ft 7 kts 101°
2026-05-04 20:17 32.08761 20.27058 420 ft 10 kts 159°
2026-05-04 20:17 32.08727 20.27023 419 ft 8 kts 282°
2026-05-04 20:18 32.08727 20.26952 411 ft 8 kts 238°
2026-05-04 20:18 32.08690 20.26922 414 ft 0 kts 216°
2026-05-04 20:18 32.08689 20.26921 414 ft 0 kts 216°